Hourly Data Report for April 14, 2021

MIRAMICHI RCS
NEW BRUNSWICK
Current Station Operator: ECCC - MSC

47°00'34.000" N
65°27'54.000" W
33.00 m
8100989
71744
ACQ

Download Data

Hourly Data (April 2021)
Hourly Data Report for April 14, 2021
TIME
LST
Temp Definition
°C
Dew Point Definition
°C
Rel Hum Definition
%
Precip. Amount Definition
mm

Wind Dir Definition
10's deg

Wind Spd Definition
km/h
Visibility Definition
km
Stn Press Definition
kPa
Hmdx Definition


Wind Chill Definition


Weather Definition


00:00 1.9 -2.7 71 LegendMM 3 14   101.50     LegendNANA
01:00 1.9 -2.4 73 LegendMM 3 13   101.46     LegendNANA
02:00 1.8 -2.0 76 LegendMM 2 10   101.48     LegendNANA
03:00 1.3 -1.9 79 LegendMM 2 9   101.49     LegendNANA
04:00 1.2 -2.1 79 LegendMM 1 9   101.48     LegendNANA
05:00 0.6 -2.1 82 LegendMM 2 10   101.47     LegendNANA
06:00 0.4 -2.0 84 LegendMM 2 11   101.49     LegendNANA
07:00 1.6 -1.4 80 LegendMM 3 13   101.53     LegendNANA
08:00 3.0 -1.1 74 LegendMM 3 15   101.55     LegendNANA
09:00 3.3 -1.5 71 LegendMM 4 14   101.55     LegendNANA
10:00 4.4 -1.2 67 LegendMM 5 15   101.55     LegendNANA
11:00 5.0 -0.5 68 LegendMM 5 12   101.50     LegendNANA
12:00 6.6 -0.1 62 LegendMM 7 17   101.44     LegendNANA
13:00 7.5 0.6 62 LegendMM 8 17   101.40     LegendNANA
14:00 7.3 -0.3 59 LegendMM 7 19   101.34     LegendNANA
15:00 7.1 -0.4 59 LegendMM 7 19   101.27     LegendNANA
16:00 7.0 -1.2 56 LegendMM 7 20   101.22     LegendNANA
17:00 5.8 -1.9 58 LegendMM 8 23   101.19     LegendNANA
18:00 4.5 -2.4 61 LegendMM 6 17   101.19     LegendNANA
19:00 2.6 -2.0 72 LegendMM 5 11   101.15     LegendNANA
20:00 1.2 -1.9 80 LegendMM 6 6   101.17     LegendNANA
21:00 0.3 -2.0 85 LegendMM 6 4   101.17     LegendNANA
22:00 -1.3 -2.7 90 LegendMM 0 1   101.15   -2 LegendNANA
23:00 -1.8 -2.9 92 LegendMM   0   101.15     LegendNANA

Notes on Data Quality.

Legend

  • E = Estimated
  • M = Missing
  • NA = Not Available*
  • [empty] = Indicates an unobserved value
Date modified: